CW2234 Weather Reports


Display with metric or nautical units.
time (UTC)temp
F
wind
direction
speed
MPH
gust
MPH
rain 1hr
in
rain 24hr
in
rain mn
in
humidity
%
barometer
mb
20260507183112 69 109 2.0 6.0 0.00 0.00 0.00 76 1016.0
20260507181557 68 136 2.0 8.0 0.00 0.00 0.00 76 1016.1
20260507180054 68 176 1.0 7.0 0.00 0.00 0.00 77 1016.2
20260507174603 68 127 3.0 8.0 0.00 0.00 0.00 75 1016.3
20260507173113 68 172 1.0 7.0 0.00 0.00 0.00 76 1016.4
20260507171554 68 174 1.0 6.0 0.00 0.00 0.00 77 1016.4
20260507170054 68 96 1.0 5.0 0.00 0.00 0.00 77 1016.3
20260507164630 68 190 1.0 6.0 0.00 0.00 0.00 75 1016.4
20260507163059 68 106 0.0 4.0 0.00 0.00 0.00 77 1016.5
20260507161559 67 140 1.0 3.0 0.00 0.00 0.00 77 1016.5
20260507160051 66 140 1.0 4.0 0.00 0.00 0.00 80 1016.6
20260507154558 65 0 2.0 8.0 0.00 0.00 0.00 81 1016.6
20260507153059 65 162 1.0 5.0 0.00 0.00 0.00 82 1016.5
20260507151554 64 139 1.0 4.0 0.00 0.00 0.00 82 1016.6
20260507150053 63 0 1.0 5.0 0.00 0.00 0.00 85 1016.6
20260507144551 63 144 1.0 4.0 0.00 0.00 0.00 86 1016.6
20260507143109 62 0 0.0 4.0 0.00 0.00 0.00 88 1016.5
20260507141558 61 151 0.0 3.0 0.00 0.00 0.00 89 1016.4
20260507140057 60 0 0.0 3.0 0.00 0.00 0.00 91 1016.2
20260507134553 59 0 0.0 3.0 0.00 0.00 0.00 92 1016.1
20260507133056 58 150 0.0 2.0 0.00 0.00 0.00 92 1015.9
20260507131601 57 0 0.0 1.0 0.00 0.00 0.00 93 1015.9
20260507130055 57 0 0.0 2.0 0.00 0.00 0.00 92 1015.8
20260507124601 57 0 0.0 3.0 0.00 0.00 0.00 92 1015.7
20260507123054 57 153 0.0 1.0 0.00 0.00 0.00 92 1015.7
20260507121553 57 0 0.0 0.0 0.00 0.00 0.00 92 1015.8
20260507120059 57 0 0.0 0.0 0.00 0.00 0.00 92 1015.8
20260507114608 57 0 0.0 0.0 0.00 0.00 0.00 91 1015.7
20260507113117 57 0 0.0 1.0 0.00 0.00 0.00 91 1015.8
20260507111556 57 0 0.0 1.0 0.00 0.00 0.00 91 1015.8
20260507110053 58 0 0.0 1.0 0.00 0.00 0.00 91 1015.9
20260507104552 58 0 0.0 2.0 0.00 0.00 0.00 91 1016.0
20260507103054 58 0 0.0 2.0 0.00 0.00 0.00 91 1016.2
20260507101550 58 0 0.0 2.0 0.00 0.00 0.00 91 1016.2
20260507100056 58 0 0.0 0.0 0.00 0.00 0.00 90 1016.2
20260507094550 58 0 0.0 1.0 0.00 0.00 0.00 90 1016.3
20260507093053 58 0 0.0 1.0 0.00 0.00 0.00 89 1016.5
20260507091612 58 0 0.0 1.0 0.00 0.00 0.00 89 1016.5
20260507090051 59 0 0.0 2.0 0.00 0.00 0.00 89 1016.6
20260507084603 59 0 0.0 2.0 0.00 0.00 0.00 89 1016.7
20260507083050 59 0 0.0 2.0 0.00 0.00 0.00 89 1016.9
20260507081559 59 151 0.0 3.0 0.00 0.00 0.00 89 1017.0
20260507080055 59 151 0.0 3.0 0.00 0.00 0.00 89 1017.0
20260507074557 59 0 0.0 3.0 0.00 0.00 0.00 89 1017.1
20260507073056 59 0 0.0 3.0 0.00 0.00 0.00 89 1017.2
20260507071553 59 0 0.0 4.0 0.00 0.00 0.00 90 1017.2
20260507070054 59 0 0.0 4.0 0.00 0.00 0.00 90 1017.2
20260507064557 59 0 0.0 2.0 0.00 0.00 0.00 89 1017.3
20260507063053 59 0 0.0 4.0 0.00 0.00 0.00 89 1017.4
20260507061554 59 136 1.0 4.0 0.00 0.00 0.00 89 1017.3
20260507060101 60 137 1.0 4.0 0.00 0.00 0.00 89 1017.4
20260507054557 60 130 0.0 6.0 0.00 0.00 0.00 88 1017.4
20260507053055 60 0 1.0 6.0 0.00 0.00 0.00 88 1017.5
20260507051553 60 0 1.0 4.0 0.00 0.00 0.00 88 1017.4
20260507050057 60 130 0.0 3.0 0.00 0.00 0.00 87 1017.4
20260507044609 61 0 0.0 5.0 0.00 0.00 0.00 86 1017.4
20260507043104 61 145 0.0 2.0 0.00 0.00 0.00 85 1017.4
20260507041559 61 157 1.0 4.0 0.00 0.00 0.00 86 1017.3
20260507040057 61 0 1.0 6.0 0.00 0.00 0.00 86 1017.2
20260507034555 62 0 1.0 6.0 0.00 0.00 0.00 85 1016.9
20260507033055 62 122 1.0 7.0 0.00 0.00 0.00 84 1016.7
20260507031555 62 131 1.0 10.0 0.00 0.00 0.00 83 1016.7
20260507030058 62 134 1.0 6.0 0.00 0.00 0.00 83 1016.6
20260507024600 63 156 3.0 9.0 0.00 0.00 0.00 82 1016.4
20260507023109 63 117 1.0 9.0 0.00 0.00 0.00 80 1016.2
20260507021557 64 98 3.0 7.0 0.00 0.00 0.00 78 1016.1
20260507020104 64 116 2.0 8.0 0.00 0.00 0.00 77 1016.0
20260507014557 64 132 2.0 11.0 0.00 0.00 0.00 78 1016.0
20260507013052 65 126 2.0 11.0 0.00 0.00 0.00 77 1015.9
20260507011552 66 172 2.0 8.0 0.00 0.00 0.00 75 1016.0
20260507010054 67 144 1.0 6.0 0.00 0.00 0.00 74 1016.1
20260507004554 67 198 1.0 7.0 0.00 0.00 0.00 75 1015.9
20260507003111 67 149 1.0 14.0 0.00 0.00 0.00 74 1016.0
20260507001612 67 124 2.0 9.0 0.00 0.00 0.00 74 1016.0
20260507000058 67 145 2.0 12.0 0.00 0.00 0.00 74 1015.8
20260506234558 68 134 2.0 10.0 0.00 0.00 0.00 72 1015.8
20260506233058 69 122 1.0 8.0 0.00 0.00 0.00 71 1015.9
20260506231608 68 136 3.0 11.0 0.00 0.00 0.00 69 1015.8
20260506230113 68 291 1.0 12.0 0.00 0.00 0.00 69 1015.9
20260506224558 69 208 2.0 9.0 0.00 0.00 0.00 70 1016.1
20260506223109 69 86 1.0 10.0 0.00 0.00 0.00 69 1016.4
20260506221606 69 123 1.0 13.0 0.00 0.00 0.00 68 1016.4
20260506220056 70 114 1.0 8.0 0.00 0.00 0.00 70 1016.8
20260506214557 70 142 2.0 11.0 0.00 0.00 0.00 68 1016.8
20260506213055 70 182 2.0 11.0 0.00 0.00 0.00 67 1017.0
20260506211555 69 88 1.0 8.0 0.00 0.00 0.00 69 1017.1
20260506210058 69 88 3.0 10.0 0.00 0.00 0.00 69 1017.2
20260506204556 69 131 3.0 11.0 0.00 0.00 0.00 68 1017.4
20260506203119 69 120 1.0 8.0 0.00 0.00 0.00 64 1017.5
20260506201556 69 360 2.0 11.0 0.00 0.00 0.00 66 1017.4
20260506200057 69 134 1.0 8.0 0.00 0.00 0.00 67 1017.6
20260506194600 69 171 2.0 10.0 0.00 0.00 0.00 67 1017.7
20260506193104 70 160 1.0 7.0 0.00 0.00 0.00 68 1017.8
20260506191553 70 132 1.0 7.0 0.00 0.00 0.00 68 1018.0
20260506190056 69 112 2.0 8.0 0.00 0.00 0.00 69 1018.1
20260506184559 69 74 1.0 7.0 0.00 0.00 0.00 69 1018.3